RH
88 63 56 69 73 60 91 98 99 98 61 70 88 98 100 71 69 76 81 52 13 15 13 13 12 11 10 9 8 9 12 12 14 18 17 17 18 17 17 18 18 19 20
94 72 59 54 54 64 92 99 87 71 75 70 89 90 99 80 48 62 75 64 26 12 15 13 13 12 11 10 9 9 11 15 16 17 20 19 19 18 18 18 19 20 20
100 85 51 53 53 51 92 96 85 98 96 76 94 99 100 99 76 95 84 73 39 12 15 15 14 12 11 10 9 10 13 15 16 18 19 20 20 20 19 20 20 21 21
91 93 61 81 47 40 93 92 97 100 99 89 81 92 90 96 90 56 64 80 60 30 14 16 16 14 12 11 10 10 13 16 19 20 22 22 23 21 21 20 22 21 22
83 89 67 51 46 31 65 98 97 93 99 84 74 78 87 98 92 68 68 86 79 64 34 17 17 16 14 12 11 11 13 16 18 22 24 24 23 23 23 22 22 22 23
65 84 97 68 32 32 67 97 100 98 99 89 80 84 82 98 96 95 89 89 87 82 71 35 18 18 17 15 12 11 14 17 19 20 23 24 24 24 23 22 23 24 24
37 90 97 85 39 22 57 96 99 84 98 94 84 91 91 84 74 84 74 75 68 74 70 59 31 18 18 17 15 12 13 15 19 21 21 21 22 23 23 24 24 25 25
42 91 90 83 52 20 58 71 99 100 98 90 96 96 100 82 80 99 96 80 74 70 69 61 39 23 19 19 17 14 13 14 17 19 20 21 22 24 25 25 25 26 26
56 76 78 97 59 36 52 71 100 100 99 97 98 99 99 91 96 94 99 91 92 88 88 78 52 33 22 20 20 18 15 14 16 17 19 20 23 25 27 27 27 28 28
77 48 70 86 64 86 65 74 82 100 94 99 100 98 98 100 99 100 97 92 99 100 99 90 69 43 28 26 23 21 19 16 16 17 19 21 24 27 29 29 29 30 30
58 52 62 75 73 50 82 93 94 98 84 99 97 94 100 92 98 98 99 94 100 100 97 83 76 79 66 70 62 57 70 22 18 18 21 21 26 28 30 31 32 34 34
60 56 76 67 72 50 47 68 94 93 97 99 97 95 98 84 98 100 100 96 88 96 97 87 87 89 83 54 74 44 24 22 21 19 20 22 26 28 31 34 35 36 37
90 95 95 68 62 62 50 69 94 100 98 83 96 100 100 100 100 99 99 95 82 84 86 94 91 98 96 87 82 76 31 26 24 22 21 23 27 30 32 35 36 39 40
96 98 98 97 59 65 48 52 86 93 98 91 89 97 95 76 83 86 84 76 89 97 99 97 98 98 99 95 88 75 41 34 31 49 23 23 26 29 32 36 39 40 43
84 85 100 98 77 65 64 51 70 96 98 98 97 92 68 60 76 79 87 82 85 97 100 100 91 98 95 95 80 95 96 97 94 64 26 24 32 30 33 35 38 44 46
76 78 72 76 66 62 66 55 53 65 82 86 93 84 55 42 43 54 58 72 83 93 100 100 100 100 98 100 100 99 99 100 94 92 76 73 33 31 33 36 40 47 51
70 58 61 77 81 71 62 70 61 52 55 52 48 40 39 38 37 34 33 44 65 77 95 93 96 99 99 100 100 99 99 99 97 89 68 56 32 37 34 39 46 52 56
99 86 61 62 73 77 75 62 69 67 56 50 44 41 35 34 39 42 38 41 58 86 98 97 97 99 96 100 100 99 95 95 96 94 92 60 66 37 38 44 50 57 72
97 91 89 75 61 63 71 70 64 61 54 58 57 56 47 56 51 50 49 68 93 100 100 99 97 92 91 98 100 99 100 100 100 98 91 79 52 38 42 47 53 65 84
98 99 100 96 84 82 74 67 65 63 62 66 56 56 50 59 60 59 63 74 90 96 98 99 95 98 100 97 100 100 98 97 98 85 80 76 56 40 46 66 66 76 95
98 99 100 97 82 74 71 68 68 66 62 60 56 60 59 62 70 68 65 61 64 67 67 70 76 88 99 99 95 92 99 100 98 99 97 95 65 47 68 96 97 92 83
99 99 99 97 97 88 79 72 76 83 85 83 81 74 70 72 73 76 75 71 78 83 85 82 74 97 99 100 100 100 94 97 100 100 99 79 73 96 98 98 84 71 87
98 99 97 99 89 86 92 92 93 89 90 95 98 98 97 98 99 96 96 97 92 98 90 83 96 99 100 99 91 100 100 98 100 97 98 98 98 99 97 82 74 86 95
100 100 98 96 99 89 89 91 84 85 85 93 92 97 98 96 95 92 96 99 99 97 87 83 91 95 100 99 99 98 99 100 99 99 98 100 99 98 96 97 96 97 95
82 88 100 100 100 92 97 84 80 87 92 95 94 89 91 91 92 89 93 96 100 100 99 93 86 81 90 94 99 99 99 99 98 99 99 98 98 98 98 97 97 96 95
86 82 80 98 100 100 98 85 91 96 78 85 98 96 94 98 96 89 83 89 100 99 99 98 99 98 93 100 100 100 100 98 95 96 99 98 98 98 97 97 96 95 96
Wind_Speed
43 55 48 43 49 54 51 63 57 60 59 60 54 51 50 44 41 40 36 33 33 33 34 34 34 32 30 28 27 26 24 22 21 19 17 15 13 10 8 6 4 3 3
38 50 55 49 50 57 58 63 61 59 61 57 56 50 49 44 41 41 39 37 36 34 34 34 33 32 31 30 29 27 25 23 21 19 18 16 14 12 9 7 6 5 4
28 45 57 55 52 58 62 63 65 64 61 59 59 52 49 45 47 46 45 41 36 34 34 33 33 32 31 29 28 26 24 21 19 21 18 17 14 12 10 9 7 6 5
39 43 52 44 59 62 68 66 64 68 65 60 57 58 57 54 45 45 42 40 38 37 34 34 33 32 30 29 27 26 25 24 22 19 19 17 15 13 12 10 8 7 7
35 44 50 59 62 63 72 51 60 73 65 62 53 58 46 48 40 46 46 45 42 40 37 35 33 31 30 29 28 28 27 27 25 23 20 18 17 15 13 11 9 8 7
43 39 39 48 64 64 65 63 49 76 56 58 55 54 53 51 47 48 49 46 44 42 39 36 33 32 31 29 28 29 29 27 26 25 25 23 20 17 13 11 10 9 8
39 40 32 45 61 69 63 60 49 62 56 60 54 56 55 45 45 46 47 46 46 43 40 37 35 33 31 30 30 29 29 27 26 25 24 22 19 16 15 13 11 10 10
36 43 34 42 57 67 58 65 46 74 63 70 53 51 59 46 46 44 44 41 41 40 39 36 35 34 32 31 30 30 30 28 27 26 24 22 21 18 16 15 13 13 13
28 44 39 35 51 59 58 61 33 58 50 55 49 48 55 47 45 47 47 42 41 38 36 37 34 32 31 30 30 30 30 29 27 26 25 24 22 20 19 17 16 15 15
29 34 41 39 42 49 51 57 57 39 52 54 56 49 49 48 51 53 53 43 41 34 35 36 34 31 30 29 27 26 26 27 28 27 26 25 24 23 22 20 19 18 17
38 38 38 40 36 53 54 47 40 44 47 37 43 47 40 43 52 38 50 49 29 33 33 31 31 29 29 29 31 35 30 31 31 29 27 26 25 24 23 22 21 19 18
31 33 29 39 37 47 53 44 41 37 49 58 49 44 40 33 39 31 42 32 28 30 30 36 33 31 30 30 25 28 29 31 27 26 26 27 25 25 24 23 22 21 20
22 21 23 27 36 36 43 51 38 52 49 45 47 38 42 41 37 29 31 32 36 35 37 39 36 33 32 28 25 24 27 26 25 27 27 25 26 26 25 24 24 23 22
28 25 22 21 34 33 34 42 23 39 39 35 49 26 22 23 25 27 29 29 36 39 38 40 35 32 32 29 27 24 28 27 26 26 28 28 28 28 28 26 25 25 24
29 32 32 28 27 30 30 35 35 26 31 27 36 33 30 32 35 33 34 32 33 34 32 33 38 32 27 31 28 28 26 27 22 25 30 29 29 30 30 28 27 26 25
24 28 32 33 37 36 29 33 37 32 32 35 33 36 34 36 35 35 33 31 32 31 37 36 33 30 30 29 30 25 27 29 25 28 29 30 30 31 31 28 28 27 26
20 25 28 31 33 37 36 33 36 38 38 38 36 35 37 41 39 37 36 34 33 32 33 30 33 31 26 29 30 33 29 27 28 29 30 31 31 30 29 28 27 27 26
20 23 26 28 30 35 36 36 35 34 33 33 33 34 34 38 42 42 39 37 35 32 32 30 33 30 34 30 29 28 24 29 29 33 32 33 31 30 29 27 27 28 27
18 16 19 27 29 31 34 34 35 34 33 34 33 32 32 36 41 41 39 37 34 34 33 33 34 35 31 32 30 35 33 34 32 29 30 30 32 31 30 28 30 32 39
25 24 24 20 27 29 32 30 27 29 32 33 30 29 28 34 38 39 36 34 33 33 31 33 34 27 36 31 33 32 31 26 30 30 33 33 35 34 31 35 38 39 34
28 17 24 25 28 31 30 29 29 30 31 32 33 31 30 32 36 37 37 34 33 31 32 33 35 34 37 32 33 35 31 32 34 31 33 34 35 35 41 41 39 33 33
21 20 21 21 24 27 28 29 28 27 26 27 29 31 32 33 34 33 33 33 32 31 30 30 32 31 31 30 31 32 32 31 32 31 31 33 38 36 36 34 31 34 39
22 15 16 17 16 20 24 24 24 25 24 26 29 31 33 35 33 32 32 30 30 29 26 27 31 33 31 37 36 40 33 34 36 31 36 37 33 37 37 31 36 40 39
12 16 14 16 18 16 18 20 25 24 28 29 28 32 35 31 31 31 37 32 31 30 29 29 28 32 33 30 32 33 36 32 34 35 33 34 40 37 34 36 39 42 43
9 9 13 14 16 18 20 18 17 19 24 28 29 30 30 30 30 28 29 32 31 31 29 28 26 27 30 31 30 29 36 35 32 32 39 39 36 32 36 39 41 38 37
8 10 9 12 14 18 18 21 23 24 22 24 24 30 31 34 32 29 27 29 32 32 30 35 30 32 27 25 21 23 25 28 26 27 31 32 36 33 36 36 32 33 29
Wind_Direction
216 221 206 210 210 203 201 206 210 209 208 204 205 207 208 204 203 199 200 203 203 200 194 197 197 196 196 196 195 195 193 194 188 190 192 192 193 198 196 199 211 226 246
214 217 215 211 209 202 203 208 210 209 206 207 208 209 206 213 207 203 203 203 204 202 197 199 199 199 198 197 197 198 196 190 196 194 191 198 198 201 204 209 221 238 261
222 209 211 212 209 207 203 210 208 213 209 202 204 207 205 214 202 206 201 202 202 202 199 199 201 202 202 201 199 198 196 199 197 201 203 202 203 207 210 216 226 238 255
213 201 209 214 207 205 202 213 209 209 208 199 201 203 206 207 210 209 204 202 202 202 200 199 201 203 203 202 201 198 197 196 198 202 204 206 209 212 217 224 234 245 260
228 203 206 209 205 207 203 212 214 204 206 197 203 210 204 204 218 206 205 200 202 202 201 200 201 201 202 203 202 202 201 201 201 197 203 210 214 218 220 227 236 248 263
223 208 214 213 207 206 205 212 216 206 203 197 204 206 204 204 205 204 200 203 201 204 203 201 201 199 201 203 204 204 205 206 208 208 206 210 215 220 226 234 243 254 263
231 201 206 206 208 206 205 209 213 189 201 201 203 202 205 204 206 207 205 204 202 202 202 203 202 201 200 202 204 208 210 210 212 215 220 224 227 231 233 236 243 253 262
222 208 200 205 207 207 203 206 195 209 200 197 199 203 202 201 204 204 211 205 208 202 202 202 203 202 201 201 205 208 211 214 217 221 225 228 231 233 237 243 249 255 262
211 213 209 202 205 205 205 203 213 209 200 208 200 200 205 201 204 206 208 206 205 209 201 200 202 203 202 203 207 211 213 215 218 224 228 231 232 235 239 244 249 256 263
188 197 204 202 201 199 199 208 213 219 204 209 202 201 212 215 199 207 209 208 198 193 197 192 199 202 200 199 204 215 219 224 222 224 229 231 231 234 238 242 248 255 263
185 188 201 196 197 202 204 194 205 215 212 209 210 198 207 211 211 216 201 211 187 188 189 189 189 198 202 207 213 215 215 225 225 225 225 234 234 235 239 246 251 256 265
176 178 185 197 191 203 204 202 203 213 209 205 207 206 204 213 202 186 189 181 193 194 197 194 203 200 206 210 215 217 222 226 227 230 233 234 237 240 241 246 252 259 266
155 172 179 186 195 199 204 200 196 197 203 205 206 204 191 197 195 182 187 192 192 196 202 204 206 205 213 216 215 215 222 226 229 232 234 235 238 239 242 248 254 260 267
158 144 160 177 187 192 201 208 225 200 194 198 206 187 187 194 193 191 191 202 200 199 200 209 205 210 222 222 222 216 229 225 228 234 235 234 236 241 243 246 252 259 264
158 158 154 159 172 185 186 196 204 190 184 183 191 187 194 197 196 196 195 198 203 208 206 205 205 217 211 220 228 219 224 227 236 235 234 232 239 243 246 249 253 259 265
157 159 169 176 177 179 184 190 194 194 195 192 193 193 197 197 200 202 202 201 204 206 200 204 215 212 209 214 217 221 221 228 235 237 239 237 239 242 248 250 255 259 264
167 169 172 179 183 183 185 183 189 195 197 202 206 207 205 204 206 206 207 207 207 211 212 218 211 214 206 211 216 224 226 229 232 234 238 239 238 244 249 251 254 257 263
161 165 174 180 187 190 189 186 188 191 194 198 200 202 206 208 207 207 208 209 209 211 212 214 210 219 222 217 221 215 237 232 238 235 234 236 239 244 247 248 252 255 258
160 162 177 185 190 194 196 193 192 192 194 196 200 204 207 200 198 204 208 208 208 210 209 212 218 221 238 231 221 245 241 231 230 232 237 236 239 241 244 245 248 251 264
122 147 157 178 183 186 187 191 194 198 201 202 203 203 206 200 201 205 208 209 211 213 216 216 217 225 212 227 232 221 222 241 231 233 236 237 245 245 237 248 250 258 264
93 126 167 166 171 172 173 178 184 191 195 199 202 204 203 199 202 208 212 214 217 218 220 221 222 221 223 233 240 245 245 243 235 238 241 245 248 239 252 257 261 255 258
98 97 122 161 170 173 177 183 188 190 191 193 196 198 199 200 204 207 211 213 214 217 221 226 222 214 209 218 224 233 242 243 245 237 242 239 243 257 261 254 253 256 263
95 109 110 130 153 172 180 186 189 190 189 193 196 197 199 200 201 208 209 209 212 215 222 225 216 221 222 213 238 225 236 239 233 235 242 247 245 249 252 250 252 257 262
119 116 141 142 150 164 174 180 189 191 196 197 201 202 202 201 206 211 214 212 215 222 229 225 224 223 224 224 228 233 234 248 242 241 252 248 245 256 260 261 256 256 261
140 149 142 144 151 175 175 185 191 192 194 199 204 202 203 206 211 214 212 219 218 221 230 233 231 224 232 236 239 245 241 238 247 259 259 253 253 261 257 257 256 260 270
155 158 164 170 171 175 179 199 193 197 203 207 206 203 208 211 210 214 216 218 220 226 222 230 227 236 216 229 245 233 236 241 251 264 255 251 260 264 271 271 268 271 273